When you browse on this site, cookies collect data to enhance your experience and personalize the content and advertising you see.
Visit our Privacy Policy to learn more. By continuing to use the site, you agree to this use of cookies and data.
  • In Hungary
  • List of Countries
  • For 7 days
  • Water Temperature
  • Weather Map
  • News
  • Weather Widgets
  • user-avatar
    Login

    Hourly Weather Hebatli

    Today, 23 October, Wednesday

    Time Temperature Precipitation Wind Pressure Humidity
    00:00 +4°C° 0 mm 0 mps 599 mmHg 80%
    01:00 +3°C° 0 mm 0 mps 599 mmHg 80%
    02:00 +3°C° 0 mm 0 mps 599 mmHg 80%
    03:00 +2°C° 0 mm 0 mps 598 mmHg 78%
    04:00 +4°C° 0 mm 1 mps 599 mmHg 73%
    05:00 +4°C° 0 mm 1 mps 599 mmHg 67%
    06:00 +4°C° 0 mm 1 mps 599 mmHg 61%
    07:00 +6°C° 0 mm 1 mps 600 mmHg 52%
    08:00 +8°C° 0 mm 1 mps 601 mmHg 42%
    09:00 +10°C° 0 mm 1 mps 602 mmHg 33%
    10:00 +11°C° 0 mm 1 mps 602 mmHg 34%
    11:00 +12°C° 0 mm 1 mps 603 mmHg 35%
    12:00 +12°C° 0 mm 2 mps 603 mmHg 36%
    13:00 +12°C° 0 mm 1 mps 602 mmHg 40%
    14:00 +11°C° 0 mm 1 mps 602 mmHg 44%
    15:00 +11°C° 0 mm 1 mps 601 mmHg 47%
    16:00 +9°C° 0 mm 1 mps 601 mmHg 54%
    17:00 +8°C° 0 mm 1 mps 600 mmHg 61%
    18:00 +6°C° 0 mm 1 mps 600 mmHg 68%
    19:00 +5°C° 0 mm 0 mps 600 mmHg 67%
    20:00 +5°C° 0 mm 0 mps 600 mmHg 66%
    21:00 +5°C° 0 mm 0 mps 600 mmHg 64%
    22:00 +4°C° 0 mm 0 mps 600 mmHg 68%
    23:00 +4°C° 0 mm 0 mps 600 mmHg 72%

    Tomorrow, 24 October, Thursday

    Time Temperature Precipitation Wind Pressure Humidity
    00:00 +5°C° 0 mm 1 mps 599 mmHg 75%
    01:00 +4°C° 0 mm 1 mps 599 mmHg 79%
    02:00 +4°C° 0 mm 1 mps 599 mmHg 83%
    03:00 +4°C° 0 mm 1 mps 599 mmHg 86%
    04:00 +4°C° 0 mm 1 mps 599 mmHg 85%
    05:00 +3°C° 0 mm 1 mps 599 mmHg 85%
    06:00 +3°C° 0 mm 1 mps 599 mmHg 84%
    07:00 +4°C° 0 mm 0 mps 600 mmHg 73%
    08:00 +6°C° 0 mm 0 mps 600 mmHg 63%
    09:00 +8°C° 0 mm 0 mps 601 mmHg 53%
    10:00 +10°C° 0 mm 1 mps 602 mmHg 51%
    11:00 +11°C° 0 mm 1 mps 602 mmHg 49%
    12:00 +12°C° 0 mm 2 mps 602 mmHg 47%
    13:00 +10°C° 0 mm 2 mps 602 mmHg 50%
    14:00 +11°C° 0 mm 1 mps 601 mmHg 53%
    15:00 +11°C° 0 mm 1 mps 601 mmHg 56%
    16:00 +9°C° 0 mm 1 mps 600 mmHg 65%
    17:00 +7°C° 0 mm 1 mps 600 mmHg 73%
    18:00 +4°C° 0 mm 0 mps 599 mmHg 82%
    19:00 +4°C° 0 mm 0 mps 599 mmHg 82%
    20:00 +4°C° 0 mm 0 mps 599 mmHg 83%
    21:00 +4°C° 0 mm 1 mps 599 mmHg 84%
    22:00 +4°C° 0 mm 1 mps 599 mmHg 86%
    23:00 +4°C° 0 mm 1 mps 598 mmHg 87%

    Day after tomorrow, 25 October, Friday

    Time Temperature Precipitation Wind Pressure Humidity
    00:00 +4°C° 0 mm 1 mps 598 mmHg 89%
    01:00 +4°C° 0 mm 1 mps 598 mmHg 90%
    02:00 +4°C° 0 mm 1 mps 598 mmHg 91%
    03:00 +4°C° 0 mm 1 mps 598 mmHg 91%
    04:00 +3°C° 0 mm 1 mps 597 mmHg 90%
    05:00 +3°C° 0 mm 1 mps 597 mmHg 89%
    06:00 +3°C° 0 mm 1 mps 597 mmHg 88%
    07:00 +5°C° 0 mm 1 mps 598 mmHg 78%
    08:00 +7°C° 0 mm 1 mps 599 mmHg 67%
    09:00 +9°C° 0 mm 1 mps 600 mmHg 57%
    10:00 +10°C° 0 mm 1 mps 600 mmHg 55%
    11:00 +10°C° 0 mm 1 mps 600 mmHg 52%
    12:00 +11°C° 0 mm 1 mps 600 mmHg 50%
    13:00 +11°C° 0 mm 1 mps 600 mmHg 52%
    14:00 +11°C° 0 mm 1 mps 600 mmHg 55%
    15:00 +11°C° 0 mm 1 mps 599 mmHg 58%
    16:00 +9°C° 0 mm 1 mps 599 mmHg 66%
    17:00 +8°C° 0 mm 1 mps 598 mmHg 75%
    18:00 +5°C° 0 mm 0 mps 598 mmHg 83%
    19:00 +4°C° 0 mm 0 mps 597 mmHg 84%
    20:00 +5°C° 0 mm 1 mps 597 mmHg 85%
    21:00 +4°C° 0 mm 1 mps 597 mmHg 86%
    22:00 +4°C° 0 mm 1 mps 597 mmHg 86%
    23:00 +4°C° 0 mm 1 mps 597 mmHg 86%

    26 October, Saturday

    Time Temperature Precipitation Wind Pressure Humidity
    00:00 +3°C° 0 mm 1 mps 597 mmHg 86%
    01:00 +3°C° 0 mm 1 mps 597 mmHg 85%
    02:00 +3°C° 0 mm 1 mps 596 mmHg 83%
    03:00 +3°C° 0 mm 1 mps 596 mmHg 81%
    04:00 +3°C° 0 mm 1 mps 596 mmHg 80%
    05:00 +3°C° 0 mm 1 mps 597 mmHg 78%
    06:00 +2°C° 0 mm 0 mps 597 mmHg 77%
    07:00 +5°C° 0 mm 1 mps 598 mmHg 70%
    08:00 +7°C° 0 mm 1 mps 599 mmHg 63%
    09:00 +9°C° 0 mm 1 mps 600 mmHg 56%
    10:00 +10°C° 0 mm 1 mps 600 mmHg 54%
    11:00 +11°C° 0 mm 1 mps 600 mmHg 53%
    12:00 +10°C° 0 mm 2 mps 600 mmHg 51%
    13:00 +10°C° 0 mm 2 mps 600 mmHg 54%
    14:00 +11°C° 0 mm 1 mps 600 mmHg 57%
    15:00 +10°C° 0 mm 1 mps 600 mmHg 61%
    16:00 +9°C° 0.1 mm 1 mps 599 mmHg 70%
    17:00 +7°C° 0.1 mm 1 mps 598 mmHg 80%
    18:00 +4°C° 0.1 mm 0 mps 598 mmHg 90%
    19:00 +4°C° 0 mm 0 mps 598 mmHg 90%
    20:00 +4°C° 0 mm 0 mps 598 mmHg 90%
    21:00 +4°C° 0 mm 0 mps 598 mmHg 91%
    22:00 +3°C° 0 mm 0 mps 598 mmHg 91%
    23:00 +3°C° 0 mm 0 mps 598 mmHg 91%

    27 October, Sunday

    Time Temperature Precipitation Wind Pressure Humidity
    00:00 +3°C° 0 mm 0 mps 597 mmHg 91%
    01:00 +3°C° 0 mm 0 mps 597 mmHg 91%
    02:00 +3°C° 0 mm 0 mps 597 mmHg 91%
    03:00 +3°C° 0 mm 0 mps 597 mmHg 90%
    04:00 +3°C° 0 mm 0 mps 597 mmHg 90%
    05:00 +2°C° 0 mm 0 mps 597 mmHg 89%
    06:00 +2°C° 0 mm 0 mps 597 mmHg 88%
    07:00 +4°C° 0 mm 0 mps 598 mmHg 80%
    08:00 +6°C° 0 mm 0 mps 599 mmHg 72%
    09:00 +8°C° 0 mm 0 mps 600 mmHg 64%
    10:00 +9°C° 0 mm 1 mps 600 mmHg 62%
    11:00 +10°C° 0 mm 1 mps 600 mmHg 60%
    12:00 +10°C° 0 mm 2 mps 600 mmHg 59%
    13:00 +10°C° 0.2 mm 1 mps 600 mmHg 63%
    14:00 +10°C° 0.2 mm 1 mps 599 mmHg 68%
    15:00 +9°C° 0.2 mm 1 mps 598 mmHg 73%
    16:00 +8°C° 0.3 mm 1 mps 598 mmHg 79%
    17:00 +7°C° 0.3 mm 1 mps 598 mmHg 85%
    18:00 +5°C° 0.3 mm 0 mps 597 mmHg 91%
    19:00 +5°C° 0.3 mm 0 mps 597 mmHg 92%
    20:00 +5°C° 0.3 mm 1 mps 597 mmHg 92%
    21:00 +5°C° 0.3 mm 1 mps 597 mmHg 93%
    22:00 +5°C° 0.2 mm 1 mps 597 mmHg 93%
    23:00 +5°C° 0.2 mm 1 mps 597 mmHg 93%

    28 October, Monday

    Time Temperature Precipitation Wind Pressure Humidity
    00:00 +5°C° 0.2 mm 1 mps 596 mmHg 94%
    01:00 +5°C° 0.7 mm 1 mps 596 mmHg 94%
    02:00 +4°C° 0.7 mm 1 mps 596 mmHg 95%
    03:00 +4°C° 0.7 mm 1 mps 595 mmHg 95%
    04:00 +4°C° 0.6 mm 1 mps 595 mmHg 95%
    05:00 +4°C° 0.6 mm 1 mps 595 mmHg 95%
    06:00 +4°C° 0.6 mm 1 mps 595 mmHg 96%
    07:00 +5°C° 0.6 mm 1 mps 595 mmHg 94%
    08:00 +5°C° 0.6 mm 1 mps 595 mmHg 93%
    09:00 +5°C° 0.6 mm 1 mps 595 mmHg 92%
    10:00 +6°C° 0.4 mm 1 mps 595 mmHg 90%
    11:00 +6°C° 0.4 mm 1 mps 595 mmHg 87%
    12:00 +7°C° 0.4 mm 1 mps 595 mmHg 85%
    13:00 +7°C° 0.3 mm 1 mps 595 mmHg 84%
    14:00 +7°C° 0.3 mm 1 mps 595 mmHg 84%
    15:00 +5°C° 0.3 mm 0 mps 595 mmHg 83%
    16:00 +5°C° 0.3 mm 0 mps 594 mmHg 85%
    17:00 +5°C° 0.3 mm 1 mps 594 mmHg 88%
    18:00 +4°C° 0.3 mm 1 mps 594 mmHg 90%
    19:00 +3°C° 0 mm 1 mps 594 mmHg 88%
    20:00 +3°C° 0 mm 1 mps 594 mmHg 85%
    21:00 +2°C° 0 mm 1 mps 594 mmHg 83%
    22:00 +2°C° 0 mm 1 mps 593 mmHg 81%
    23:00 +2°C° 0 mm 1 mps 593 mmHg 78%

    29 October, Tuesday

    Time Temperature Precipitation Wind Pressure Humidity
    00:00 +2°C° 0 mm 1 mps 593 mmHg 76%
    01:00 +2°C° 0 mm 1 mps 593 mmHg 77%
    02:00 +1°C° 0 mm 1 mps 593 mmHg 77%
    03:00 +1°C° 0 mm 1 mps 593 mmHg 77%
    04:00 +1°C° 0 mm 1 mps 593 mmHg 76%
    05:00 +1°C° 0 mm 1 mps 593 mmHg 76%
    06:00 +1°C° 0 mm 1 mps 593 mmHg 75%
    07:00 +3°C° 0 mm 1 mps 594 mmHg 71%
    08:00 +4°C° 0 mm 0 mps 595 mmHg 66%
    09:00 +6°C° 0 mm 0 mps 596 mmHg 61%
    10:00 +7°C° 0 mm 0 mps 596 mmHg 58%
    11:00 +9°C° 0 mm 1 mps 597 mmHg 55%
    12:00 +10°C° 0 mm 1 mps 597 mmHg 53%
    13:00 +9°C° 0 mm 1 mps 597 mmHg 54%
    14:00 +9°C° 0 mm 1 mps 597 mmHg 55%
    15:00 +9°C° 0 mm 1 mps 597 mmHg 56%
    16:00 +7°C° 0 mm 1 mps 596 mmHg 62%
    17:00 +5°C° 0 mm 1 mps 595 mmHg 69%
    18:00 +3°C° 0 mm 1 mps 594 mmHg 75%
    19:00 +3°C° 0 mm 1 mps 594 mmHg 75%
    20:00 +3°C° 0 mm 1 mps 594 mmHg 74%
    21:00 +3°C° 0 mm 1 mps 595 mmHg 73%
    22:00 +3°C° 0 mm 1 mps 595 mmHg 75%
    23:00 +3°C° 0 mm 1 mps 594 mmHg 77%
    Show more